Weather History for KBOW - August, 2013

Change the Weather History Date:

Saturday, August 17, 2013

  Actual Average Record
Temperature  
Mean Temperature 82 °F -  
Max Temperature 91 °F - - ()
Min Temperature 73 °F - - ()
Cooling Degree Days 17    
Growing Degree Days 32 (Base 50)    
Moisture  
Dew Point 75 °F    
Average Humidity 91    
Maximum Humidity 100    
Minimum Humidity 49    
Precipitation  
Precipitation 0.14 in - - ()
Sea Level Pressure  
Sea Level Pressure 30.06 in    
Wind  
Wind Speed 2 mph (NE)    
Max Wind Speed 16 mph    
Max Gust Speed 21 mph    
Visibility 8 miles    
Events Rain , Thunderstorm    
T = Trace of Precipitation, MM = Missing Value Source: NWS Daily Summary

Daily Weather History Graph

Daily Weather History Graph

Search for Another Location

Airport or City:

Trip Planner

Search our weather history database for the weather conditions in past years. The results will help you decide how hot, cold, wet, or windy it might be!

Date:

Astronomy

Aug. 17, 2013 Rise Set
Actual Time 6:58 AM EDT 8:03 PM EDT
Civil Twilight 6:33 AM EDT 8:27 PM EDT
Nautical Twilight 6:04 AM EDT 8:56 PM EDT
Astronomical Twilight 5:35 AM EDT 9:26 PM EDT
Moon 5:09 PM EDT (8/17) 3:09 AM EDT (8/17)
Length of Visible Light 13h 53m
Length of Day
13h 04m
Waxing Gibbous, 84% of the Moon is Illuminated
Aug 17
Waxing Gibbous
Aug 20
Full
Aug 28
Last Quarter
Sep 5
New
Sep 12
First Quarter

Hourly Weather History & Observations

Time (EDT) Temp. Heat Index Dew Point Humidity Pressure Visibility Wind Dir Wind Speed Gust Speed Precip Events Conditions
12:15 AM 75.2 °F - 75.2 °F 100% 30.08 in 9.0 mi North 4.6 mph - N/A Thunderstorm Clear
12:35 AM 75.2 °F - 75.2 °F 100% 30.08 in 8.0 mi Calm Calm - N/A Thunderstorm Scattered Clouds
12:55 AM 75.2 °F - 75.2 °F 100% 30.08 in 9.0 mi Calm Calm - N/A   Scattered Clouds
1:15 AM 75.2 °F - 75.2 °F 100% 30.07 in 8.0 mi Calm Calm - N/A   Partly Cloudy
1:35 AM 75.2 °F - 75.2 °F 100% 30.08 in 10.0 mi Calm Calm - N/A   Scattered Clouds
1:55 AM 75.2 °F - 75.2 °F 100% 30.08 in 10.0 mi Calm Calm - N/A   Mostly Cloudy
2:15 AM 75.2 °F - 75.2 °F 100% 30.07 in 8.0 mi Calm Calm - N/A   Scattered Clouds
2:35 AM 77.0 °F - 73.4 °F 89% 30.06 in 10.0 mi Calm Calm - N/A   Partly Cloudy
2:55 AM 77.0 °F - 73.4 °F 89% 30.06 in 8.0 mi Calm Calm - N/A Thunderstorm Clear
3:15 AM 75.2 °F - 73.4 °F 94% 30.05 in 10.0 mi Calm Calm - N/A   Clear
3:35 AM 75.2 °F - 71.6 °F 89% 30.05 in 8.0 mi Calm Calm - N/A Rain Light Rain
3:55 AM 75.2 °F - 75.2 °F 100% 30.04 in 7.0 mi Calm Calm - N/A   Light Drizzle
4:15 AM 75.2 °F - 75.2 °F 100% 30.04 in 8.0 mi Calm Calm - N/A   Clear
4:35 AM 75.2 °F - 75.2 °F 100% 30.04 in 8.0 mi Calm Calm - N/A   Clear
4:55 AM 75.2 °F - 75.2 °F 100% 30.03 in 10.0 mi Calm Calm - N/A   Clear
5:15 AM 73.4 °F - 73.4 °F 100% 30.03 in 7.0 mi Calm Calm - N/A   Clear
5:35 AM 73.4 °F - - N/A% 30.03 in 7.0 mi Calm Calm - N/A   Clear
5:55 AM 73.4 °F - - N/A% 30.04 in 8.0 mi Calm Calm - N/A   Clear
6:15 AM 73.4 °F - - N/A% 30.04 in 7.0 mi Calm Calm - N/A   Clear
6:35 AM 73.4 °F - - N/A% 30.05 in 7.0 mi Calm Calm - N/A   Clear
6:55 AM 73.4 °F - - N/A% 30.05 in 7.0 mi Calm Calm - N/A   Clear
7:15 AM 73.4 °F - - N/A% 30.05 in 6.0 mi Calm Calm - N/A   Haze
3:35 PM 91.4 °F 96.8 °F 69.8 °F 49% 30.01 in - SE 10.4 mph - N/A   Partly Cloudy
3:55 PM 86.0 °F 93.4 °F 73.4 °F 66% 30.02 in 8.0 mi SSW 16.1 mph 20.7 mph N/A Thunderstorm Scattered Clouds
4:15 PM 75.2 °F - 75.2 °F 100% 30.01 in 3.0 mi SW 16.1 mph 19.6 mph 0.02 in Rain , Thunderstorm Light Thunderstorms and Rain
4:35 PM 77.0 °F - 73.4 °F 89% 30.02 in 4.0 mi NNW 4.6 mph - 0.05 in Thunderstorm Mostly Cloudy
4:55 PM 80.6 °F 85.4 °F 73.4 °F 79% 30.02 in 8.0 mi Calm Calm - 0.05 in   Partly Cloudy
5:15 PM 87.8 °F 95.6 °F 73.4 °F 62% 30.00 in 7.0 mi Calm Calm - N/A Thunderstorm Partly Cloudy
5:35 PM 87.8 °F 97.6 °F 75.2 °F 66% 30.02 in 8.0 mi Calm Calm - N/A Thunderstorm Partly Cloudy
5:55 PM 82.4 °F 88.2 °F 73.4 °F 74% 30.03 in 5.0 mi ENE 8.1 mph - N/A   Haze
6:15 PM 78.8 °F - 73.4 °F 83% 30.04 in 2.0 mi NE 12.7 mph 17.3 mph 0.05 in Rain , Thunderstorm Heavy Thunderstorms and Rain
6:35 PM 77.0 °F - 73.4 °F 89% 30.05 in 8.0 mi NNW 3.5 mph - 0.08 in Rain Light Rain
6:55 PM 78.8 °F - 73.4 °F 83% 30.05 in 8.0 mi North 4.6 mph - 0.09 in   Scattered Clouds
7:15 PM 78.8 °F - 75.2 °F 89% 30.06 in 8.0 mi NNE 4.6 mph - N/A   Partly Cloudy
7:35 PM 78.8 °F - 73.4 °F 83% 30.08 in 8.0 mi North 3.5 mph - N/A   Clear
7:55 PM 78.8 °F - 77.0 °F 94% 30.08 in 8.0 mi Calm Calm - N/A   Clear
8:15 PM 78.8 °F - 78.8 °F 100% 30.08 in 9.0 mi Calm Calm - N/A   Clear
8:35 PM 77.0 °F - 77.0 °F 100% 30.07 in 8.0 mi NE 5.8 mph - N/A   Clear
8:55 PM 77.0 °F - 77.0 °F 100% 30.08 in 9.0 mi ENE 6.9 mph - N/A   Clear
9:15 PM 77.0 °F - 75.2 °F 94% 30.08 in 10.0 mi ENE 4.6 mph - N/A   Clear
9:35 PM 77.0 °F - 75.2 °F 94% 30.09 in 10.0 mi ENE 3.5 mph - N/A   Clear
9:55 PM 77.0 °F - 75.2 °F 94% 30.10 in 9.0 mi Calm Calm - N/A   Clear
10:15 PM 77.0 °F - 75.2 °F 94% 30.10 in 9.0 mi Calm Calm - N/A   Clear
10:35 PM 78.8 °F - 75.2 °F 89% 30.10 in 10.0 mi Calm Calm - N/A   Clear
10:55 PM 78.8 °F - 77.0 °F 94% 30.10 in 9.0 mi Calm Calm - N/A   Clear
11:15 PM 78.8 °F - 77.0 °F 94% 30.10 in 9.0 mi Calm Calm - N/A   Clear
11:35 PM 77.0 °F - 77.0 °F 100% 30.10 in 8.0 mi Calm Calm - N/A   Clear
11:55 PM 75.2 °F - 75.2 °F 100% 30.10 in 9.0 mi Calm Calm - N/A   Scattered Clouds